DW4127 Weather Reports


Display with metric or nautical units.
time (UTC)temp
F
wind
direction
speed
MPH
gust
MPH
rain 1hr
in
rain 24hr
in
rain mn
in
humidity
%
barometer
mb
20260505210549 89 225 4.0 11.0 0.00 0.00 0.00 56 1003.1
20260505205549 90 225 4.0 9.0 0.00 0.00 0.00 57 1003.4
20260505204549 89 225 5.0 9.0 0.00 0.00 0.00 58 1003.4
20260505203549 89 225 5.0 13.0 0.00 0.00 0.00 60 1003.7
20260505202549 89 225 5.0 12.0 0.00 0.00 0.00 59 1003.7
20260505201549 89 225 6.0 11.0 0.00 0.00 0.00 61 1003.8
20260505200549 88 225 3.0 9.0 0.00 0.00 0.00 61 1003.8
20260505195549 87 203 5.0 12.0 0.00 0.00 0.00 61 1003.8
20260505194549 87 203 5.0 15.0 0.00 0.00 0.00 65 1003.9
20260505193549 86 248 5.0 10.0 0.00 0.00 0.00 65 1004.0
20260505192549 85 180 6.0 10.0 0.00 0.00 0.00 67 1003.9
20260505191609 85 180 6.0 13.0 0.00 0.00 0.00 67 1003.9
20260505190548 84 180 6.0 14.0 0.00 0.00 0.00 69 1004.1
20260505185549 83 225 6.0 13.0 0.00 0.00 0.00 70 1004.0
20260505184549 83 180 5.0 11.0 0.00 0.00 0.00 69 1004.1
20260505183608 83 225 6.0 13.0 0.00 0.00 0.00 69 1004.3
20260505182548 82 203 6.0 19.0 0.00 0.00 0.00 70 1004.2
20260505181549 82 203 6.0 13.0 0.00 0.00 0.00 70 1004.3
20260505180548 82 225 5.0 12.0 0.00 0.00 0.00 70 1004.3
20260505175549 82 180 7.0 16.0 0.00 0.00 0.00 70 1004.2
20260505174548 82 180 7.0 16.0 0.00 0.00 0.00 70 1004.4
20260505173549 82 225 6.0 12.0 0.00 0.00 0.00 69 1004.6
20260505172548 82 203 5.0 10.0 0.00 0.00 0.00 70 1004.5
20260505171549 81 203 7.0 12.0 0.00 0.00 0.00 71 1004.4
20260505170548 81 225 6.0 17.0 0.00 0.00 0.00 72 1004.6
20260505165549 80 203 7.0 18.0 0.00 0.00 0.00 73 1004.4
20260505164549 80 225 5.0 11.0 0.00 0.00 0.00 71 1004.3
20260505163548 80 225 7.0 11.0 0.00 0.00 0.00 72 1004.5
20260505162548 80 203 8.0 14.0 0.00 0.00 0.00 73 1004.5
20260505161548 80 248 7.0 14.0 0.00 0.00 0.00 73 1004.3
20260505160548 79 203 8.0 22.0 0.00 0.00 0.00 72 1004.1
20260505152549 78 225 9.0 17.0 0.00 0.00 0.00 75 1004.2
20260505151548 77 225 7.0 16.0 0.00 0.00 0.00 76 1004.3
20260505150548 77 203 7.0 17.0 0.00 0.00 0.00 77 1004.3
20260505140608 73 225 5.0 13.0 0.00 0.00 0.00 82 1004.0
20260505124548 72 203 5.0 10.0 0.00 0.00 0.00 83 1004.0
20260505123548 72 158 5.0 9.0 0.00 0.00 0.00 84 1003.7
20260505122548 71 180 5.0 11.0 0.00 0.00 0.00 83 1003.4
20260505121548 71 203 6.0 16.0 0.00 0.00 0.00 83 1003.5
20260505120548 71 180 6.0 15.0 0.00 0.00 0.00 83 1003.4
20260505115608 71 180 6.0 16.0 0.00 0.00 0.00 83 1003.4
20260505114548 71 180 5.0 12.0 0.00 0.00 0.00 83 1003.3
20260505113548 71 203 7.0 13.0 0.00 0.00 0.00 83 1003.2
20260505112548 71 180 6.0 14.0 0.00 0.00 0.00 83 1003.2
20260505111548 71 158 6.0 16.0 0.00 0.00 0.00 83 1003.1
20260505110548 71 180 6.0 13.0 0.00 0.00 0.00 83 1003.2
20260505101548 72 180 5.0 14.0 0.00 0.00 0.00 82 1003.4
20260505100608 72 180 8.0 17.0 0.00 0.00 0.00 82 1003.5
20260505095608 72 180 6.0 12.0 0.00 0.00 0.00 82 1003.4
20260505094548 72 203 8.0 16.0 0.00 0.00 0.00 82 1003.5
20260505093548 72 203 6.0 17.0 0.00 0.00 0.00 82 1003.6
20260505092548 72 203 7.0 18.0 0.00 0.00 0.00 82 1003.7
20260505091548 72 180 5.0 13.0 0.00 0.00 0.00 83 1003.8
20260505090608 71 180 7.0 17.0 0.00 0.00 0.00 83 1003.9
20260505085548 71 203 5.0 13.0 0.00 0.00 0.00 83 1003.8
20260505084548 71 180 6.0 14.0 0.00 0.00 0.00 83 1003.7
20260505083548 71 180 7.0 15.0 0.00 0.00 0.00 83 1003.7
20260505082548 71 203 6.0 13.0 0.00 0.00 0.00 83 1003.8
20260505081548 71 180 7.0 17.0 0.00 0.00 0.00 82 1003.9
20260505080548 71 180 7.0 16.0 0.00 0.00 0.00 82 1003.9
20260505075548 71 180 7.0 16.0 0.00 0.00 0.00 82 1004.1
20260505074548 71 180 6.0 14.0 0.00 0.00 0.00 81 1004.3
20260505073608 72 158 6.0 15.0 0.00 0.00 0.00 81 1004.5
20260505072548 72 180 6.0 17.0 0.00 0.00 0.00 80 1004.5
20260505071548 72 180 6.0 15.0 0.00 0.00 0.00 80 1004.8
20260505070608 72 180 7.0 14.0 0.00 0.00 0.00 80 1004.8
20260505065548 72 180 7.0 17.0 0.00 0.00 0.00 79 1004.9
20260505064548 73 180 7.0 21.0 0.00 0.00 0.00 79 1005.0
20260505063548 73 180 7.0 17.0 0.00 0.00 0.00 78 1005.0
20260505062608 73 203 7.0 16.0 0.00 0.00 0.00 78 1005.0
20260505061548 73 180 6.0 14.0 0.00 0.00 0.00 77 1005.2
20260505060608 73 180 8.0 17.0 0.00 0.00 0.00 77 1005.1
20260505055548 73 180 7.0 17.0 0.00 0.00 0.00 77 1005.2
20260505054548 73 180 7.0 14.0 0.00 0.00 0.00 76 1005.2
20260505053548 73 180 7.0 17.0 0.00 0.00 0.00 76 1005.3
20260505052548 73 180 7.0 15.0 0.00 0.00 0.00 75 1005.3
20260505051548 73 180 6.0 13.0 0.00 0.00 0.00 75 1005.5
20260505050608 74 180 6.0 11.0 0.00 0.00 0.00 74 1005.5
20260505041548 74 158 6.0 12.0 0.00 0.00 0.00 72 1005.7
20260505040547 74 158 7.0 12.0 0.00 0.00 0.00 72 1005.8
20260505035607 74 180 5.0 12.0 0.00 0.00 0.00 72 1005.7
20260505034627 75 158 7.0 15.0 0.00 0.00 0.00 71 1005.6
20260505033547 75 158 7.0 13.0 0.00 0.00 0.00 71 1005.4
20260505032547 75 180 8.0 18.0 0.00 0.00 0.00 70 1005.6
20260505031547 75 180 6.0 13.0 0.00 0.00 0.00 70 1005.6
20260505030547 75 180 7.0 19.0 0.00 0.00 0.00 70 1005.6
20260505025549 75 158 5.0 16.0 0.00 0.00 0.00 70 1005.7
20260505024549 75 180 7.0 16.0 0.00 0.00 0.00 70 1005.6
20260505023547 75 158 6.0 13.0 0.00 0.00 0.00 69 1005.5
20260505022549 76 158 6.0 16.0 0.00 0.00 0.00 69 1005.2
20260505021549 76 180 5.0 12.0 0.00 0.00 0.00 69 1005.4
20260505020609 76 158 7.0 13.0 0.00 0.00 0.00 68 1005.2
20260505015549 76 180 7.0 16.0 0.00 0.00 0.00 68 1005.2
20260505014549 76 180 5.0 13.0 0.00 0.00 0.00 68 1005.2
20260505013549 76 180 6.0 12.0 0.00 0.00 0.00 67 1005.3
20260505012549 77 158 6.0 12.0 0.00 0.00 0.00 67 1005.3
20260505011549 77 180 7.0 14.0 0.00 0.00 0.00 66 1005.2
20260505010549 77 158 6.0 15.0 0.00 0.00 0.00 65 1005.2
20260505005549 77 158 9.0 19.0 0.00 0.00 0.00 65 1005.1
20260505004609 77 180 4.0 9.0 0.00 0.00 0.00 65 1005.3
20260505003549 78 180 8.0 16.0 0.00 0.00 0.00 64 1005.4
20260505002549 78 180 8.0 17.0 0.00 0.00 0.00 64 1005.3
20260505001609 79 203 7.0 15.0 0.00 0.00 0.00 63 1005.4
20260505000549 79 180 6.0 13.0 0.00 0.00 0.00 63 1005.5
20260504235549 79 203 7.0 14.0 0.00 0.00 0.00 62 1005.5
20260504234609 79 180 7.0 14.0 0.00 0.00 0.00 62 1005.7
20260504233549 79 180 10.0 21.0 0.00 0.00 0.00 61 1005.7
20260504232549 79 180 10.0 19.0 0.00 0.00 0.00 61 1005.6
20260504231549 79 180 10.0 21.0 0.00 0.00 0.00 60 1005.7
20260504230609 80 180 9.0 19.0 0.00 0.00 0.00 60 1005.9
20260504225549 80 203 7.0 18.0 0.00 0.00 0.00 59 1005.9
20260504224547 81 180 9.0 19.0 0.00 0.00 0.00 59 1006.2
20260504223549 81 180 10.0 19.0 0.00 0.00 0.00 59 1006.2
20260504222549 81 180 6.0 12.0 0.00 0.00 0.00 60 1006.1
20260504221609 81 203 7.0 16.0 0.00 0.00 0.00 58 1006.2
20260504220549 81 180 6.0 13.0 0.00 0.00 0.00 59 1006.5
20260504215549 81 180 9.0 16.0 0.00 0.00 0.00 58 1006.6
20260504214549 82 203 6.0 16.0 0.00 0.00 0.00 57 1006.7
20260504213609 81 180 8.0 18.0 0.00 0.00 0.00 58 1006.8
20260504212549 81 180 9.0 20.0 0.00 0.00 0.00 57 1006.9
20260504211609 82 158 9.0 20.0 0.00 0.00 0.00 57 1007.2